BTK6136 WARR-WAAA

Flight info

Callsign BTK6136
Flight time 1h 13m
Altitude 35000
Route PEDSO T15 ENDOG
Aircraft A320/M-SDE3FGHIRWY/LB1

Departure

Time 2026-04-26 12:16
Airport Juanda International Airport (WARR)

Arrival

Time 2026-04-26 13:30
Airport Sultan Hasanuddin International Airport (WAAA)
Time Latitude Longitude Altitude Speed Heading
2026-04-26 12:01 -7.37584 112.79470 9 ft 0 kts
2026-04-26 12:04 -7.37595 112.79468 9 ft 3 kts
2026-04-26 12:04 -7.37615 112.79465 9 ft 3 kts
2026-04-26 12:04 -7.37635 112.79462 9 ft 3 kts
2026-04-26 12:04 -7.37654 112.79459 9 ft 3 kts 20°
2026-04-26 12:05 -7.37669 112.79449 9 ft 3 kts 63°
2026-04-26 12:05 -7.37674 112.79431 9 ft 3 kts 94°
2026-04-26 12:05 -7.37673 112.79423 9 ft 0 kts 99°
2026-04-26 12:06 -7.37673 112.79424 9 ft 1 kts 99°
2026-04-26 12:07 -7.37685 112.79444 9 ft 3 kts 142°
2026-04-26 12:07 -7.37694 112.79449 10 ft 2 kts 155°
2026-04-26 12:07 -7.37719 112.79447 9 ft 7 kts 188°
2026-04-26 12:07 -7.37790 112.79436 9 ft 11 kts 189°
2026-04-26 12:08 -7.37853 112.79426 9 ft 7 kts 189°
2026-04-26 12:08 -7.37916 112.79383 10 ft 15 kts 252°
2026-04-26 12:08 -7.37906 112.79289 9 ft 13 kts 280°
2026-04-26 12:08 -7.37903 112.79272 9 ft 12 kts 279°
2026-04-26 12:10 -7.37890 112.79196 11 ft 10 kts 279°
2026-04-26 12:10 -7.37879 112.79129 9 ft 9 kts 279°
2026-04-26 12:10 -7.37870 112.79073 9 ft 8 kts 278°
2026-04-26 12:10 -7.37857 112.78986 9 ft 18 kts 279°
2026-04-26 12:11 -7.37832 112.78834 9 ft 24 kts 279°
2026-04-26 12:11 -7.37804 112.78666 9 ft 25 kts 279°
2026-04-26 12:11 -7.37776 112.78491 10 ft 26 kts 279°
2026-04-26 12:11 -7.37748 112.78314 11 ft 25 kts 279°
2026-04-26 12:12 -7.37720 112.78141 9 ft 24 kts 279°
2026-04-26 12:12 -7.37694 112.77983 9 ft 22 kts 279°
2026-04-26 12:12 -7.37671 112.77839 9 ft 20 kts 279°
2026-04-26 12:12 -7.37657 112.77752 9 ft 18 kts 279°
2026-04-26 12:13 -7.37636 112.77621 9 ft 10 kts 279°
2026-04-26 12:13 -7.37624 112.77549 9 ft 14 kts 279°
2026-04-26 12:13 -7.37608 112.77433 8 ft 15 kts 264°
2026-04-26 12:13 -7.37677 112.77383 8 ft 12 kts 181°
2026-04-26 12:14 -7.37738 112.77372 8 ft 5 kts 190°
2026-04-26 12:14 -7.37766 112.77377 9 ft 5 kts 144°
2026-04-26 12:14 -7.37777 112.77411 11 ft 5 kts 104°
2026-04-26 12:14 -7.37778 112.77417 9 ft 0 kts 99°
2026-04-26 12:15 -7.37779 112.77422 9 ft 5 kts 99°
2026-04-26 12:16 -7.37824 112.77703 8 ft 77 kts 99°
2026-04-26 12:16 -7.37944 112.78448 8 ft 135 kts 99°
2026-04-26 12:16 -7.38121 112.79536 108 ft 173 kts 99°
2026-04-26 12:16 -7.38306 112.80744 734 ft 177 kts 98°
2026-04-26 12:17 -7.38490 112.81968 1481 ft 176 kts 99°
2026-04-26 12:17 -7.38693 112.83198 2093 ft 184 kts 100°
2026-04-26 12:17 -7.38837 112.84069 2275 ft 197 kts 99°
2026-04-26 12:17 -7.39078 112.85510 2498 ft 219 kts 99°
2026-04-26 12:18 -7.39337 112.87083 2820 ft 238 kts 99°
2026-04-26 12:18 -7.39714 112.89396 3420 ft 263 kts 99°
2026-04-26 12:18 -7.39900 112.90616 3873 ft 270 kts 96°
2026-04-26 12:18 -7.39722 112.92497 4668 ft 275 kts 71°
2026-04-26 12:19 -7.38757 112.94170 5483 ft 279 kts 53°
2026-04-26 12:19 -7.37582 112.95735 6309 ft 282 kts 53°
2026-04-26 12:19 -7.36390 112.97318 7104 ft 286 kts 53°
2026-04-26 12:19 -7.35184 112.98924 7874 ft 289 kts 54°
2026-04-26 12:20 -7.33973 113.00554 8572 ft 293 kts 53°
2026-04-26 12:20 -7.32746 113.02206 9280 ft 295 kts 53°
2026-04-26 12:20 -7.31504 113.03870 9919 ft 302 kts 54°
2026-04-26 12:20 -7.30226 113.05588 10390 ft 313 kts 53°
2026-04-26 12:21 -7.28871 113.07403 10544 ft 336 kts 53°
2026-04-26 12:21 -7.27445 113.09316 10834 ft 352 kts 54°
2026-04-26 12:21 -7.26154 113.11477 11433 ft 358 kts 66°
2026-04-26 12:21 -7.25302 113.13832 12107 ft 359 kts 72°
2026-04-26 12:22 -7.24520 113.16234 12783 ft 361 kts 73°
2026-04-26 12:22 -7.23734 113.18650 13413 ft 364 kts 72°
2026-04-26 12:22 -7.22949 113.21047 14057 ft 367 kts 72°
2026-04-26 12:22 -7.22142 113.23491 14674 ft 369 kts 72°
2026-04-26 12:23 -7.21325 113.25952 15267 ft 372 kts 72°
2026-04-26 12:23 -7.20506 113.28424 15820 ft 373 kts 72°
2026-04-26 12:23 -7.19680 113.30911 16335 ft 376 kts 72°
2026-04-26 12:23 -7.18851 113.33419 16852 ft 379 kts 72°
2026-04-26 12:24 -7.18019 113.35949 17366 ft 383 kts 72°
2026-04-26 12:24 -7.17181 113.38501 17914 ft 385 kts 72°
2026-04-26 12:24 -7.16337 113.41068 18437 ft 387 kts 72°
2026-04-26 12:25 -7.14629 113.46249 19375 ft 392 kts 72°
2026-04-26 12:25 -7.13762 113.48868 19810 ft 395 kts 72°
2026-04-26 12:25 -7.12891 113.51504 20235 ft 398 kts 72°
2026-04-26 12:25 -7.12015 113.54161 20657 ft 401 kts 72°
2026-04-26 12:26 -7.11134 113.56831 21055 ft 404 kts 72°
2026-04-26 12:26 -7.10244 113.59520 21452 ft 406 kts 72°
2026-04-26 12:26 -7.09350 113.62222 21847 ft 408 kts 72°
2026-04-26 12:26 -7.08450 113.64938 22218 ft 410 kts 72°
2026-04-26 12:27 -7.07546 113.67671 22568 ft 413 kts 72°
2026-04-26 12:27 -7.06637 113.70425 22918 ft 415 kts 72°
2026-04-26 12:27 -7.05726 113.73189 23248 ft 418 kts 72°
2026-04-26 12:27 -7.04805 113.75973 23599 ft 420 kts 72°
2026-04-26 12:28 -7.03881 113.78771 23925 ft 422 kts 72°
2026-04-26 12:28 -7.02952 113.81586 24246 ft 425 kts 72°
2026-04-26 12:28 -7.02018 113.84414 24558 ft 427 kts 72°
2026-04-26 12:28 -7.01076 113.87257 24876 ft 429 kts 72°
2026-04-26 12:29 -7.00131 113.90113 25184 ft 431 kts 72°
2026-04-26 12:29 -6.99182 113.92981 25497 ft 433 kts 72°
2026-04-26 12:29 -6.97273 113.98749 26075 ft 436 kts 72°
2026-04-26 12:30 -6.96307 114.01652 26353 ft 438 kts 72°
2026-04-26 12:30 -6.95329 114.04558 26619 ft 440 kts 72°
2026-04-26 12:30 -6.94340 114.07477 26887 ft 441 kts 72°
2026-04-26 12:31 -6.92344 114.13348 27407 ft 446 kts 72°
2026-04-26 12:31 -6.91337 114.16315 27536 ft 451 kts 72°
2026-04-26 12:31 -6.90322 114.19316 27663 ft 455 kts 72°
2026-04-26 12:31 -6.89301 114.22342 27789 ft 459 kts 72°
2026-04-26 12:32 -6.88271 114.25394 27926 ft 462 kts 72°
2026-04-26 12:32 -6.87236 114.28469 28045 ft 466 kts 72°
2026-04-26 12:32 -6.85145 114.34681 28299 ft 472 kts 72°
2026-04-26 12:33 -6.84084 114.37818 28420 ft 475 kts 72°
2026-04-26 12:33 -6.83017 114.40974 28546 ft 478 kts 72°
2026-04-26 12:33 -6.81945 114.44147 28697 ft 479 kts 72°
2026-04-26 12:33 -6.80870 114.47322 28929 ft 479 kts 72°
2026-04-26 12:34 -6.79797 114.50488 29177 ft 479 kts 72°
2026-04-26 12:34 -6.78727 114.53660 29440 ft 478 kts 72°
2026-04-26 12:34 -6.77658 114.56829 29696 ft 478 kts 72°
2026-04-26 12:34 -6.76591 114.59988 29966 ft 477 kts 72°
2026-04-26 12:35 -6.75522 114.63142 30238 ft 476 kts 72°
2026-04-26 12:35 -6.74452 114.66289 30505 ft 475 kts 72°
2026-04-26 12:35 -6.73387 114.69424 30784 ft 474 kts 71°
2026-04-26 12:35 -6.72321 114.72561 31066 ft 473 kts 71°
2026-04-26 12:36 -6.71263 114.75683 31346 ft 471 kts 71°
2026-04-26 12:36 -6.70219 114.78757 31622 ft 470 kts 71°
2026-04-26 12:36 -6.69163 114.81865 31911 ft 468 kts 71°
2026-04-26 12:36 -6.68117 114.84961 32199 ft 467 kts 71°
2026-04-26 12:37 -6.67072 114.88050 32491 ft 466 kts 71°
2026-04-26 12:37 -6.66027 114.91134 32757 ft 465 kts 71°
2026-04-26 12:37 -6.64987 114.94205 33029 ft 463 kts 71°
2026-04-26 12:37 -6.63935 114.97303 33310 ft 462 kts 71°
2026-04-26 12:38 -6.62909 115.00315 33578 ft 461 kts 71°
2026-04-26 12:38 -6.61876 115.03359 33857 ft 459 kts 71°
2026-04-26 12:38 -6.60848 115.06395 34145 ft 458 kts 71°
2026-04-26 12:38 -6.59821 115.09424 34419 ft 457 kts 71°
2026-04-26 12:39 -6.58794 115.12444 34671 ft 456 kts 71°
2026-04-26 12:39 -6.57765 115.15465 34856 ft 457 kts 71°
2026-04-26 12:39 -6.56738 115.18481 34900 ft 457 kts 71°
2026-04-26 12:40 -6.54684 115.24516 34915 ft 456 kts 71°
2026-04-26 12:40 -6.52634 115.30548 34915 ft 455 kts 71°
2026-04-26 12:41 -6.50588 115.36568 34914 ft 455 kts 71°
2026-04-26 12:41 -6.48537 115.42588 34914 ft 455 kts 71°
2026-04-26 12:42 -6.46481 115.48606 34920 ft 455 kts 71°
2026-04-26 12:42 -6.44434 115.54621 34925 ft 455 kts 71°
2026-04-26 12:43 -6.42387 115.60641 34930 ft 455 kts 71°
2026-04-26 12:43 -6.40337 115.66655 34928 ft 455 kts 71°
2026-04-26 12:44 -6.38281 115.72664 34933 ft 454 kts 71°
2026-04-26 12:44 -6.36228 115.78670 34915 ft 455 kts 71°
2026-04-26 12:45 -6.34172 115.84692 34910 ft 456 kts 71°
2026-04-26 12:45 -6.32120 115.90721 34911 ft 456 kts 71°
2026-04-26 12:46 -6.30058 115.96761 34919 ft 457 kts 71°
2026-04-26 12:46 -6.27989 116.02791 34925 ft 457 kts 71°
2026-04-26 12:47 -6.25923 116.08832 34927 ft 457 kts 71°
2026-04-26 12:47 -6.23860 116.14864 34928 ft 457 kts 71°
2026-04-26 12:48 -6.21787 116.20905 34936 ft 457 kts 71°
2026-04-26 12:48 -6.19720 116.26939 34931 ft 457 kts 71°
2026-04-26 12:49 -6.17650 116.32975 34929 ft 457 kts 71°
2026-04-26 12:49 -6.15578 116.39014 34926 ft 457 kts 71°
2026-04-26 12:50 -6.13511 116.45055 34930 ft 457 kts 71°
2026-04-26 12:50 -6.11442 116.51092 34919 ft 457 kts 71°
2026-04-26 12:51 -6.09366 116.57132 34919 ft 457 kts 71°
2026-04-26 12:51 -6.07295 116.63168 34922 ft 457 kts 71°
2026-04-26 12:52 -6.05223 116.69213 34918 ft 458 kts 71°
2026-04-26 12:52 -6.03151 116.75259 34919 ft 458 kts 71°
2026-04-26 12:53 -6.01106 116.81201 34915 ft 443 kts 71°
2026-04-26 12:53 -5.99109 116.86991 34914 ft 441 kts 71°
2026-04-26 12:54 -5.97101 116.92806 34915 ft 440 kts 71°
2026-04-26 12:54 -5.95099 116.98617 34916 ft 441 kts 71°
2026-04-26 12:55 -5.93103 117.04436 34916 ft 441 kts 71°
2026-04-26 12:55 -5.91104 117.10264 34918 ft 441 kts 71°
2026-04-26 12:56 -5.89094 117.16086 34918 ft 441 kts 71°
2026-04-26 12:56 -5.87127 117.21925 34919 ft 441 kts 73°
2026-04-26 12:57 -5.85527 117.27876 34919 ft 442 kts 76°
2026-04-26 12:57 -5.84088 117.33870 34917 ft 442 kts 76°
2026-04-26 12:58 -5.81820 117.42829 34913 ft 441 kts 75°
2026-04-26 12:58 -5.80254 117.48787 34907 ft 441 kts 75°
2026-04-26 12:59 -5.78684 117.54742 34905 ft 441 kts 75°
2026-04-26 12:59 -5.77127 117.60695 34903 ft 441 kts 75°
2026-04-26 13:00 -5.75578 117.66652 34901 ft 441 kts 75°
2026-04-26 13:00 -5.74028 117.72599 34902 ft 441 kts 75°
2026-04-26 13:01 -5.73249 117.75582 34794 ft 442 kts 75°
2026-04-26 13:01 -5.72471 117.78563 34542 ft 442 kts 75°
2026-04-26 13:01 -5.71694 117.81551 34290 ft 441 kts 75°
2026-04-26 13:01 -5.70915 117.84532 34044 ft 442 kts 75°
2026-04-26 13:02 -5.70134 117.87513 33794 ft 442 kts 75°
2026-04-26 13:02 -5.69351 117.90499 33549 ft 442 kts 75°
2026-04-26 13:02 -5.68570 117.93484 33294 ft 443 kts 75°
2026-04-26 13:02 -5.68051 117.95467 33129 ft 443 kts 75°
2026-04-26 13:03 -5.67267 117.98463 32878 ft 444 kts 75°
2026-04-26 13:03 -5.66214 118.02492 31682 ft 451 kts 75°
2026-04-26 13:03 -5.65414 118.05558 30690 ft 455 kts 75°
2026-04-26 13:03 -5.64611 118.08629 29977 ft 452 kts 75°
2026-04-26 13:04 -5.64084 118.10639 29582 ft 449 kts 75°
2026-04-26 13:04 -5.63294 118.13657 28933 ft 444 kts 75°
2026-04-26 13:04 -5.62511 118.16639 28303 ft 440 kts 75°
2026-04-26 13:04 -5.61737 118.19593 27683 ft 436 kts 75°
2026-04-26 13:05 -5.60969 118.22521 27069 ft 432 kts 75°
2026-04-26 13:05 -5.60207 118.25425 26464 ft 428 kts 75°
2026-04-26 13:05 -5.59451 118.28304 25861 ft 425 kts 76°
2026-04-26 13:05 -5.58701 118.31156 25265 ft 421 kts 76°
2026-04-26 13:06 -5.57957 118.33985 24684 ft 417 kts 76°
2026-04-26 13:06 -5.57219 118.36789 24116 ft 413 kts 76°
2026-04-26 13:06 -5.56490 118.39560 23558 ft 409 kts 76°
2026-04-26 13:06 -5.55767 118.42313 23040 ft 405 kts 76°
2026-04-26 13:07 -5.55051 118.45033 22516 ft 401 kts 76°
2026-04-26 13:07 -5.54345 118.47722 22040 ft 397 kts 76°
2026-04-26 13:07 -5.53651 118.50384 21563 ft 392 kts 76°
2026-04-26 13:07 -5.52963 118.53017 21103 ft 388 kts 76°
2026-04-26 13:08 -5.52280 118.55622 20644 ft 384 kts 75°
2026-04-26 13:08 -5.51601 118.58201 20184 ft 380 kts 75°
2026-04-26 13:08 -5.50926 118.60757 19713 ft 377 kts 75°
2026-04-26 13:08 -5.50258 118.63291 19245 ft 374 kts 75°
2026-04-26 13:09 -5.49597 118.65807 18768 ft 372 kts 75°
2026-04-26 13:09 -5.48941 118.68309 18280 ft 370 kts 75°
2026-04-26 13:09 -5.48286 118.70798 17797 ft 368 kts 75°
2026-04-26 13:09 -5.47634 118.73273 17306 ft 366 kts 75°
2026-04-26 13:10 -5.46994 118.75704 16822 ft 364 kts 75°
2026-04-26 13:10 -5.46345 118.78153 16325 ft 363 kts 75°
2026-04-26 13:10 -5.45707 118.80592 15816 ft 362 kts 75°
2026-04-26 13:10 -5.45068 118.83035 15303 ft 361 kts 75°
2026-04-26 13:11 -5.44429 118.85467 14816 ft 359 kts 75°
2026-04-26 13:11 -5.43790 118.87882 14325 ft 357 kts 75°
2026-04-26 13:11 -5.43154 118.90285 13843 ft 355 kts 75°
2026-04-26 13:11 -5.42523 118.92671 13360 ft 353 kts 75°
2026-04-26 13:12 -5.41896 118.95043 12876 ft 351 kts 75°
2026-04-26 13:12 -5.41276 118.97403 12377 ft 349 kts 75°
2026-04-26 13:12 -5.40663 118.99751 11877 ft 347 kts 76°
2026-04-26 13:12 -5.40051 119.02089 11379 ft 345 kts 76°
2026-04-26 13:13 -5.39438 119.04408 10871 ft 343 kts 75°
2026-04-26 13:13 -5.38821 119.06722 10420 ft 342 kts 75°
2026-04-26 13:13 -5.38221 119.08981 10285 ft 328 kts 75°
2026-04-26 13:13 -5.37647 119.11152 10162 ft 316 kts 75°
2026-04-26 13:14 -5.37096 119.13246 10032 ft 305 kts 75°
2026-04-26 13:14 -5.36564 119.15270 9818 ft 297 kts 75°
2026-04-26 13:14 -5.36039 119.17259 9673 ft 294 kts 75°
2026-04-26 13:14 -5.35519 119.19235 9329 ft 292 kts 75°
2026-04-26 13:15 -5.35001 119.21206 8938 ft 291 kts 75°
2026-04-26 13:15 -5.34483 119.23167 8541 ft 290 kts 75°
2026-04-26 13:15 -5.33970 119.25116 8153 ft 288 kts 75°
2026-04-26 13:15 -5.33458 119.27055 7763 ft 286 kts 75°
2026-04-26 13:16 -5.32948 119.28984 7379 ft 285 kts 75°
2026-04-26 13:16 -5.32442 119.30897 6996 ft 283 kts 75°
2026-04-26 13:16 -5.31940 119.32793 6614 ft 280 kts 75°
2026-04-26 13:16 -5.31441 119.34675 6237 ft 278 kts 75°
2026-04-26 13:17 -5.30463 119.38392 5491 ft 273 kts 75°
2026-04-26 13:17 -5.29983 119.40222 5125 ft 270 kts 75°
2026-04-26 13:18 -5.28904 119.43742 4596 ft 254 kts 59°
2026-04-26 13:18 -5.27740 119.44973 4598 ft 237 kts 34°
2026-04-26 13:18 -5.24638 119.45666 4601 ft 235 kts 352°
2026-04-26 13:19 -5.23098 119.45136 4609 ft 236 kts 330°
2026-04-26 13:19 -5.21826 119.44101 4598 ft 237 kts 310°
2026-04-26 13:19 -5.21003 119.42697 4607 ft 239 kts 289°
2026-04-26 13:19 -5.20723 119.41062 4603 ft 239 kts 268°
2026-04-26 13:20 -5.21041 119.39438 4606 ft 238 kts 246°
2026-04-26 13:20 -5.21907 119.38038 4607 ft 237 kts 225°
2026-04-26 13:20 -5.23177 119.37002 4607 ft 236 kts 212°
2026-04-26 13:20 -5.24574 119.36131 4606 ft 236 kts 209°
2026-04-26 13:21 -5.25998 119.35309 4606 ft 236 kts 208°
2026-04-26 13:21 -5.26967 119.34768 4608 ft 236 kts 204°
2026-04-26 13:21 -5.28978 119.34497 4593 ft 213 kts 167°
2026-04-26 13:21 -5.30331 119.34979 4616 ft 200 kts 148°
2026-04-26 13:22 -5.31355 119.35767 4600 ft 174 kts 131°
2026-04-26 13:22 -5.32025 119.36690 4592 ft 157 kts 116°
2026-04-26 13:22 -5.32404 119.37704 4612 ft 155 kts 102°
2026-04-26 13:22 -5.32511 119.38776 4610 ft 155 kts 87°
2026-04-26 13:23 -5.32336 119.39834 4608 ft 154 kts 73°
2026-04-26 13:23 -5.31887 119.40810 4623 ft 155 kts 58°
2026-04-26 13:23 -5.31136 119.41589 4609 ft 157 kts 38°
2026-04-26 13:23 -5.30235 119.42213 4602 ft 158 kts 34°
2026-04-26 13:24 -5.29298 119.42797 4473 ft 158 kts 33°
2026-04-26 13:24 -5.28355 119.43358 4299 ft 157 kts 32°
2026-04-26 13:24 -5.27409 119.43910 4099 ft 157 kts 32°
2026-04-26 13:24 -5.26462 119.44459 3894 ft 157 kts 32°
2026-04-26 13:25 -5.25518 119.45004 3686 ft 156 kts 31°
2026-04-26 13:25 -5.24576 119.45553 3495 ft 157 kts 31°
2026-04-26 13:25 -5.23638 119.46093 3276 ft 155 kts 32°
2026-04-26 13:25 -5.22692 119.46636 3066 ft 156 kts 32°
2026-04-26 13:26 -5.21757 119.47178 2872 ft 155 kts 33°
2026-04-26 13:26 -5.20825 119.47715 2661 ft 154 kts 31°
2026-04-26 13:26 -5.19897 119.48250 2457 ft 153 kts 31°
2026-04-26 13:26 -5.18976 119.48781 2247 ft 153 kts 31°
2026-04-26 13:27 -5.18060 119.49309 2043 ft 151 kts 30°
2026-04-26 13:27 -5.17147 119.49835 1843 ft 151 kts 30°
2026-04-26 13:27 -5.16233 119.50363 1640 ft 150 kts 31°
2026-04-26 13:27 -5.15321 119.50889 1438 ft 151 kts 30°
2026-04-26 13:28 -5.14406 119.51416 1250 ft 152 kts 30°
2026-04-26 13:28 -5.13490 119.51945 1037 ft 152 kts 30°
2026-04-26 13:28 -5.12580 119.52469 834 ft 151 kts 30°
2026-04-26 13:28 -5.11669 119.52994 641 ft 150 kts 30°
2026-04-26 13:29 -5.10761 119.53518 434 ft 150 kts 30°
2026-04-26 13:29 -5.10166 119.53866 309 ft 150 kts 31°
2026-04-26 13:29 -5.08960 119.54561 57 ft 148 kts 30°
2026-04-26 13:29 -5.08134 119.55035 42 ft 125 kts 30°
2026-04-26 13:30 -5.07519 119.55390 41 ft 77 kts 31°
2026-04-26 13:30 -5.07168 119.55594 39 ft 49 kts 29°
2026-04-26 13:30 -5.06959 119.55713 38 ft 29 kts 30°
2026-04-26 13:30 -5.06810 119.55797 41 ft 23 kts 30°
2026-04-26 13:31 -5.06732 119.55805 42 ft 11 kts 329°
2026-04-26 13:31 -5.06684 119.55754 41 ft 9 kts 310°
2026-04-26 13:31 -5.06666 119.55698 41 ft 8 kts 264°
2026-04-26 13:31 -5.06696 119.55660 41 ft 7 kts 209°
2026-04-26 13:32 -5.06741 119.55634 41 ft 10 kts 210°
2026-04-26 13:32 -5.06820 119.55589 41 ft 16 kts 210°
2026-04-26 13:32 -5.06933 119.55524 41 ft 20 kts 210°
2026-04-26 13:32 -5.07060 119.55451 39 ft 22 kts 210°
2026-04-26 13:33 -5.07199 119.55370 41 ft 24 kts 210°
2026-04-26 13:33 -5.07349 119.55284 39 ft 26 kts 210°
2026-04-26 13:33 -5.07491 119.55202 38 ft 20 kts 210°
2026-04-26 13:33 -5.07575 119.55154 41 ft 9 kts 210°
2026-04-26 13:34 -5.07618 119.55113 41 ft 8 kts 249°
2026-04-26 13:34 -5.07608 119.55062 41 ft 10 kts 298°
2026-04-26 13:34 -5.07582 119.54999 41 ft 9 kts 276°
2026-04-26 13:34 -5.07587 119.54959 41 ft 8 kts 259°
2026-04-26 13:35 -5.07621 119.54901 41 ft 7 kts 214°
2026-04-26 13:35 -5.07652 119.54883 41 ft 0 kts 211°
2026-04-26 13:35 -5.07669 119.54873 39 ft 4 kts 210°
2026-04-26 13:35 -5.07694 119.54859 41 ft 5 kts 210°
2026-04-26 13:36 -5.07719 119.54844 41 ft 4 kts 210°
2026-04-26 13:36 -5.07737 119.54833 41 ft 2 kts 219°
2026-04-26 13:36 -5.07731 119.54805 41 ft 5 kts 300°
2026-04-26 13:36 -5.07717 119.54780 41 ft 3 kts 300°
2026-04-26 13:37 -5.07711 119.54769 41 ft 0 kts 300°